| time (UTC) | temp F | wind direction | speed MPH | gust MPH | rain 1hr in | rain 24hr in | rain mn in | humidity % | barometer mb |
| 20260904022238 | 58 | 0.0 | 0.0 | 0.00 | 0.05 | 0.00 | 75 | 1008.9 | |
| 20260904021102 | 58 | 0.0 | 0.0 | 0.00 | 0.05 | 0.00 | 74 | 1008.6 | |
| 20260904020122 | 59 | 0.0 | 0.0 | 0.00 | 0.05 | 0.00 | 74 | 1008.7 | |
| 20260904015001 | 59 | 0.0 | 0.0 | 0.00 | 0.05 | 0.00 | 75 | 1008.6 | |
| 20260904013827 | 60 | 0.0 | 0.0 | 0.00 | 0.05 | 0.00 | 73 | 1008.4 | |
| 20260904012748 | 60 | 0.0 | 0.0 | 0.00 | 0.05 | 0.00 | 73 | 1008.5 | |
| 20260904011743 | 61 | 0.0 | 0.0 | 0.00 | 0.05 | 0.00 | 74 | 1008.4 | |
| 20260904010614 | 61 | 0.0 | 0.0 | 0.00 | 0.07 | 0.00 | 73 | 1008.3 | |
| 20260904005626 | 62 | 0.0 | 0.0 | 0.00 | 0.16 | 0.00 | 73 | 1008.4 | |
| 20260904004550 | 63 | 0.0 | 0.0 | 0.00 | 0.16 | 0.00 | 71 | 1008.3 | |
| 20260904003622 | 64 | 0.0 | 0.0 | 0.00 | 0.16 | 0.00 | 67 | 1008.3 | |
| 20260904002630 | 64 | 0.0 | 0.0 | 0.00 | 0.16 | 0.00 | 65 | 1008.2 | |
| 20260904001528 | 64 | 0.0 | 0.0 | 0.00 | 0.16 | 0.00 | 63 | 1008.2 | |
| 20260904000412 | 63 | 0.0 | 0.0 | 0.00 | 0.16 | 0.00 | 64 | 1008.2 | |
| 20260903235346 | 62 | 0.0 | 0.0 | 0.00 | 0.16 | 0.00 | 66 | 1008.3 | |
| 20260903234205 | 62 | 0.0 | 0.0 | 0.00 | 0.16 | 0.00 | 67 | 1008.3 | |
| 20260903233135 | 62 | 0.0 | 0.0 | 0.00 | 0.16 | 0.00 | 66 | 1008.3 | |
| 20260903232159 | 62 | 0.0 | 0.0 | 0.00 | 0.17 | 0.00 | 69 | 1008.3 | |
| 20260903231055 | 61 | 0.0 | 0.0 | 0.00 | 0.19 | 0.00 | 70 | 1008.4 | |
| 20260903225952 | 61 | 0.0 | 0.0 | 0.00 | 0.20 | 0.00 | 72 | 1008.4 | |
| 20260903224954 | 61 | 0.0 | 0.0 | 0.00 | 0.21 | 0.00 | 71 | 1008.4 | |
| 20260903223912 | 61 | 0.0 | 0.0 | 0.00 | 0.22 | 0.00 | 72 | 1008.5 | |
| 20260903222932 | 61 | 0.0 | 0.0 | 0.00 | 0.23 | 0.00 | 70 | 1008.5 | |
| 20260903221817 | 62 | 0.0 | 0.0 | 0.00 | 0.23 | 0.00 | 69 | 1008.6 | |
| 20260903220842 | 62 | 0.0 | 0.0 | 0.00 | 0.24 | 0.00 | 66 | 1008.6 | |
| 20260903215825 | 63 | 0.0 | 0.0 | 0.00 | 0.25 | 0.00 | 64 | 1008.5 | |
| 20260903214856 | 64 | 0.0 | 0.0 | 0.00 | 0.25 | 0.00 | 62 | 1008.3 | |
| 20260903213845 | 64 | 0.0 | 0.0 | 0.00 | 0.26 | 0.00 | 61 | 1008.2 | |
| 20260903212811 | 64 | 0.0 | 0.0 | 0.00 | 0.26 | 0.00 | 60 | 1008.1 | |
| 20260903211822 | 64 | 0.0 | 0.0 | 0.00 | 0.27 | 0.00 | 60 | 1008.1 | |
| 20260903210650 | 63 | 0.0 | 0.0 | 0.00 | 0.27 | 0.00 | 61 | 1008.0 | |
| 20260903205506 | 63 | 0.0 | 0.0 | 0.00 | 0.27 | 0.00 | 62 | 1008.0 | |
| 20260903204341 | 62 | 0.0 | 0.0 | 0.00 | 0.27 | 0.00 | 62 | 1008.0 | |
| 20260903203239 | 63 | 0.0 | 0.0 | 0.00 | 0.27 | 0.00 | 61 | 1008.0 | |
| 20260903202221 | 63 | 0.0 | 0.0 | 0.00 | 0.27 | 0.00 | 59 | 1008.1 | |
| 20260903201148 | 62 | 0.0 | 0.0 | 0.00 | 0.27 | 0.00 | 61 | 1008.2 | |
| 20260903200043 | 61 | 0.0 | 0.0 | 0.00 | 0.27 | 0.00 | 63 | 1008.2 | |
| 20260903194913 | 61 | 0.0 | 0.0 | 0.00 | 0.27 | 0.00 | 65 | 1008.2 | |
| 20260903193927 | 61 | 0.0 | 0.0 | 0.00 | 0.27 | 0.00 | 64 | 1008.2 | |
| 20260903192819 | 60 | 0.0 | 0.0 | 0.00 | 0.27 | 0.00 | 66 | 1008.2 | |
| 20260903191854 | 60 | 0.0 | 0.0 | 0.00 | 0.27 | 0.00 | 66 | 1008.1 | |
| 20260903190907 | 60 | 0.0 | 0.0 | 0.00 | 0.27 | 0.00 | 66 | 1008.1 | |
| 20260903185922 | 60 | 0.0 | 0.0 | 0.00 | 0.27 | 0.00 | 64 | 1008.1 | |
| 20260903184958 | 60 | 0.0 | 0.0 | 0.00 | 0.27 | 0.00 | 64 | 1008.0 | |
| 20260903184010 | 60 | 0.0 | 0.0 | 0.00 | 0.27 | 0.00 | 65 | 1008.1 | |
| 20260903183033 | 60 | 0.0 | 0.0 | 0.00 | 0.27 | 0.00 | 69 | 1008.1 | |
| 20260903181958 | 59 | 0.0 | 0.0 | 0.00 | 0.27 | 0.00 | 70 | 1008.1 | |
| 20260903180919 | 58 | 0.0 | 0.0 | 0.00 | 0.27 | 0.00 | 69 | 1008.0 | |
| 20260903175928 | 58 | 0.0 | 0.0 | 0.00 | 0.27 | 0.00 | 70 | 1007.9 | |
| 20260903174842 | 57 | 0.0 | 0.0 | 0.00 | 0.27 | 0.00 | 72 | 1007.9 | |
| 20260903173842 | 56 | 0.0 | 0.0 | 0.00 | 0.27 | 0.00 | 73 | 1008.0 | |
| 20260903172706 | 56 | 0.0 | 0.0 | 0.00 | 0.27 | 0.00 | 73 | 1007.9 | |
| 20260903171529 | 56 | 0.0 | 0.0 | 0.00 | 0.27 | 0.00 | 75 | 1007.9 | |
| 20260903170356 | 55 | 0.0 | 0.0 | 0.00 | 0.27 | 0.00 | 77 | 1007.9 | |
| 20260903165357 | 55 | 0.0 | 0.0 | 0.00 | 0.27 | 0.00 | 76 | 1007.9 | |
| 20260903164425 | 55 | 0.0 | 0.0 | 0.00 | 0.27 | 0.00 | 78 | 1007.9 | |
| 20260903163335 | 54 | 0.0 | 0.0 | 0.00 | 0.27 | 0.00 | 77 | 1008.1 | |
| 20260903162245 | 54 | 0.0 | 0.0 | 0.00 | 0.27 | 0.00 | 79 | 1008.1 | |
| 20260903161319 | 54 | 0.0 | 0.0 | 0.00 | 0.27 | 0.00 | 81 | 1008.2 | |
| 20260903160202 | 53 | 0.0 | 0.0 | 0.00 | 0.27 | 0.00 | 82 | 1008.2 | |
| 20260903155128 | 53 | 0.0 | 0.0 | 0.00 | 0.27 | 0.00 | 84 | 1008.1 | |
| 20260903154046 | 52 | 0.0 | 0.0 | 0.00 | 0.27 | 0.00 | 84 | 1008.2 | |
| 20260903153001 | 52 | 0.0 | 0.0 | 0.00 | 0.27 | 0.00 | 86 | 1008.1 | |
| 20260903151952 | 52 | 0.0 | 0.0 | 0.00 | 0.27 | 0.00 | 87 | 1008.1 | |
| 20260903150952 | 52 | 0.0 | 0.0 | 0.00 | 0.27 | 0.00 | 88 | 1008.3 | |
| 20260903145859 | 51 | 0.0 | 0.0 | 0.00 | 0.27 | 0.00 | 87 | 1008.3 | |
| 20260903144931 | 51 | 0.0 | 0.0 | 0.00 | 0.27 | 0.00 | 89 | 1008.4 | |
| 20260903143824 | 51 | 0.0 | 0.0 | 0.01 | 0.26 | 0.00 | 88 | 1008.1 | |
| 20260903142649 | 51 | 0.0 | 0.0 | 0.02 | 0.26 | 0.00 | 89 | 1008.1 | |
| 20260903141618 | 51 | 0.0 | 0.0 | 0.02 | 0.26 | 0.00 | 89 | 1007.9 | |
| 20260903140554 | 51 | 0.0 | 0.0 | 0.02 | 0.26 | 0.00 | 89 | 1008.0 | |
| 20260903135420 | 51 | 0.0 | 0.0 | 0.03 | 0.26 | 0.00 | 90 | 1008.0 | |
| 20260903134347 | 51 | 0.0 | 0.0 | 0.01 | 0.25 | 0.00 | 89 | 1008.0 | |
| 20260903133401 | 51 | 0.0 | 0.0 | 0.00 | 0.24 | 0.00 | 89 | 1008.0 | |
| 20260903132335 | 51 | 0.0 | 0.0 | 0.00 | 0.24 | 0.00 | 90 | 1007.8 | |
| 20260903131248 | 51 | 0.0 | 0.0 | 0.00 | 0.24 | 0.00 | 88 | 1007.7 | |
| 20260903130243 | 51 | 0.0 | 0.0 | 0.00 | 0.24 | 0.00 | 86 | 1007.7 | |
| 20260903125132 | 51 | 0.0 | 0.0 | 0.00 | 0.23 | 0.00 | 84 | 1007.6 | |
| 20260903124156 | 51 | 0.0 | 0.0 | 0.00 | 0.23 | 0.00 | 85 | 1007.5 | |
| 20260903123059 | 52 | 0.0 | 0.0 | 0.00 | 0.23 | 0.00 | 84 | 1007.3 | |
| 20260903121925 | 52 | 0.0 | 0.0 | 0.00 | 0.23 | 0.00 | 84 | 1007.1 | |
| 20260903120838 | 52 | 0.0 | 0.0 | 0.01 | 0.23 | 0.00 | 84 | 1007.2 | |
| 20260903115722 | 52 | 0.0 | 0.0 | 0.01 | 0.23 | 0.00 | 84 | 1007.0 | |
| 20260903114556 | 52 | 0.0 | 0.0 | 0.01 | 0.23 | 0.00 | 84 | 1007.1 | |
| 20260903113510 | 52 | 0.0 | 0.0 | 0.01 | 0.23 | 0.00 | 82 | 1007.2 | |
| 20260903112350 | 52 | 0.0 | 0.0 | 0.01 | 0.23 | 0.00 | 82 | 1007.1 | |
| 20260903111428 | 52 | 0.0 | 0.0 | 0.01 | 0.23 | 0.00 | 82 | 1007.1 | |
| 20260903110253 | 52 | 0.0 | 0.0 | 0.00 | 0.21 | 0.00 | 79 | 1007.1 | |
| 20260903105207 | 52 | 0.0 | 0.0 | 0.00 | 0.21 | 0.00 | 78 | 1006.9 | |
| 20260903104234 | 52 | 0.0 | 0.0 | 0.00 | 0.21 | 0.00 | 78 | 1007.0 | |
| 20260903103256 | 52 | 0.0 | 0.0 | 0.00 | 0.21 | 0.00 | 79 | 1006.9 | |
| 20260903102155 | 52 | 0.0 | 0.0 | 0.00 | 0.21 | 0.00 | 78 | 1006.9 | |
| 20260903101212 | 52 | 0.0 | 0.0 | 0.00 | 0.21 | 0.00 | 80 | 1007.1 | |
| 20260903100238 | 52 | 0.0 | 0.0 | 0.00 | 0.21 | 0.00 | 79 | 1006.9 | |
| 20260903095145 | 52 | 0.0 | 0.0 | 0.00 | 0.21 | 0.00 | 79 | 1006.9 | |
| 20260903094222 | 52 | 0.0 | 0.0 | 0.00 | 0.21 | 0.00 | 79 | 1006.8 | |
| 20260903093154 | 52 | 0.0 | 0.0 | 0.00 | 0.21 | 0.00 | 80 | 1006.8 | |
| 20260903092148 | 51 | 0.0 | 0.0 | 0.00 | 0.22 | 0.00 | 82 | 1006.8 | |
| 20260903091042 | 51 | 0.0 | 0.0 | 0.00 | 0.22 | 0.00 | 84 | 1006.7 | |
| 20260903085946 | 51 | 0.0 | 0.0 | 0.00 | 0.22 | 0.00 | 84 | 1006.8 | |
| 20260903084921 | 51 | 0.0 | 0.0 | 0.00 | 0.24 | 0.00 | 83 | 1006.7 | |
| 20260903083817 | 51 | 0.0 | 0.0 | 0.00 | 0.24 | 0.00 | 83 | 1006.7 | |
| 20260903082741 | 52 | 0.0 | 0.0 | 0.00 | 0.24 | 0.00 | 83 | 1006.8 | |
| 20260903081640 | 52 | 0.0 | 0.0 | 0.00 | 0.24 | 0.00 | 82 | 1006.8 | |
| 20260903080521 | 51 | 0.0 | 0.0 | 0.00 | 0.24 | 0.00 | 82 | 1006.9 | |
| 20260903075549 | 52 | 0.0 | 0.0 | 0.00 | 0.24 | 0.00 | 82 | 1006.7 | |
| 20260903074442 | 52 | 0.0 | 0.0 | 0.00 | 0.24 | 0.00 | 84 | 1006.8 | |
| 20260903073406 | 52 | 0.0 | 0.0 | 0.00 | 0.24 | 0.00 | 84 | 1006.7 | |
| 20260903072251 | 52 | 0.0 | 0.0 | 0.00 | 0.24 | 0.00 | 86 | 1006.7 | |
| 20260903071259 | 52 | 0.0 | 0.0 | 0.00 | 0.24 | 0.00 | 84 | 1006.7 | |
| 20260903070137 | 52 | 0.0 | 0.0 | 0.00 | 0.24 | 0.00 | 84 | 1006.6 | |
| 20260903064956 | 52 | 0.0 | 0.0 | 0.00 | 0.24 | 0.00 | 85 | 1006.8 | |
| 20260903063850 | 52 | 0.0 | 0.0 | 0.00 | 0.24 | 0.00 | 86 | 1006.7 | |
| 20260903062904 | 52 | 0.0 | 0.0 | 0.00 | 0.24 | 0.00 | 85 | 1006.6 | |
| 20260903061805 | 52 | 0.0 | 0.0 | 0.00 | 0.24 | 0.00 | 86 | 1006.6 | |
| 20260903060658 | 52 | 0.0 | 0.0 | 0.00 | 0.24 | 0.00 | 86 | 1006.5 | |
| 20260903055741 | 52 | 0.0 | 0.0 | 0.00 | 0.24 | 0.00 | 86 | 1006.5 | |
| 20260903054802 | 52 | 0.0 | 0.0 | 0.00 | 0.24 | 0.00 | 86 | 1006.6 | |
| 20260903053757 | 52 | 0.0 | 0.0 | 0.00 | 0.24 | 0.00 | 86 | 1006.7 | |
| 20260903052750 | 52 | 0.0 | 0.0 | 0.00 | 0.24 | 0.00 | 87 | 1006.7 | |
| 20260903051725 | 53 | 0.0 | 0.0 | 0.00 | 0.24 | 0.00 | 87 | 1006.5 | |
| 20260903050753 | 53 | 0.0 | 0.0 | 0.00 | 0.24 | 0.00 | 87 | 1006.6 | |
| 20260903045821 | 53 | 0.0 | 0.0 | 0.00 | 0.24 | 0.00 | 87 | 1006.4 | |
| 20260903044813 | 53 | 0.0 | 0.0 | 0.00 | 0.24 | 0.00 | 87 | 1006.5 | |
| 20260903043804 | 53 | 0.0 | 0.0 | 0.00 | 0.24 | 0.00 | 86 | 1006.5 | |
| 20260903042820 | 53 | 0.0 | 0.0 | 0.00 | 0.24 | 0.00 | 87 | 1006.4 | |
| 20260903041657 | 53 | 0.0 | 0.0 | 0.00 | 0.24 | 0.00 | 88 | 1006.3 | |
| 20260903040616 | 53 | 0.0 | 0.0 | 0.00 | 0.24 | 0.00 | 89 | 1006.3 | |
| 20260903035544 | 54 | 0.0 | 0.0 | 0.00 | 0.24 | 0.00 | 89 | 1006.1 | |
| 20260903035152 | 58 | 0.0 | 0.0 | 0.03 | 0.14 | 0.00 | 84 | 1002.8 | |
| 20260903034452 | 54 | 0.0 | 0.0 | 0.00 | 0.24 | 0.00 | 89 | 1005.9 | |
| 20260903033519 | 54 | 0.0 | 0.0 | 0.00 | 0.25 | 0.00 | 89 | 1005.7 | |
| 20260903032452 | 54 | 0.0 | 0.0 | 0.00 | 0.25 | 0.00 | 90 | 1005.8 | |
| 20260903031511 | 55 | 0.0 | 0.0 | 0.00 | 0.25 | 0.00 | 90 | 1005.6 | |
| 20260903030511 | 55 | 0.0 | 0.0 | 0.00 | 0.25 | 0.00 | 89 | 1005.4 | |
| 20260903025445 | 55 | 0.0 | 0.0 | 0.00 | 0.25 | 0.00 | 88 | 1005.2 | |
| 20260903024504 | 56 | 0.0 | 0.0 | 0.00 | 0.25 | 0.00 | 87 | 1005.1 | |
| 20260903023322 | 57 | 0.0 | 0.0 | 0.00 | 0.25 | 0.00 | 86 | 1005.2 |